Other Surface Observations
Issued by NWS Tucson, AZ

Home | Current Version | Previous Version | Text Only | Print | Product List | Glossary On
Versions: 1 2 3 4 5 6 7 8 9 10 11 12 13 14 15 16 17 18 19 20 21 22 23 24 25 26 27 28 29 30 31 32 33 34 35 36 37 38 39 40 41 42 43 44 45 46 47 48 49 50
000
SXUS55 KTWC 262215
OSOTWC

WEATHER ROUNDUP FOR SOUTHEAST ARIZONA
NATIONAL WEATHER SERVICE TUCSON AZ
315 PM MST MON SEP 26 2016

AZZ504>506-514-262315-
LOCATION       SKY/WX    TMP DP  RH WIND       PRES   REMARKS
TUCSON         CLOUDY    73  48  41 SE24G35   30.10F
DAVIS-MONTHAN  CLOUDY    72  48  42 E6        30.08F
CHILDRENS PARK N/A      N/A N/A  38 E14               PIMA CO DEQ
ALVERNON/22ND  N/A       70 N/A N/A E11               PIMA CO DEQ
CHERRY/GLENN   N/A       71 N/A N/A E17               PIMA CO DEQ
TANGERINE      N/A       69 N/A N/A NE8               PIMA CO DEQ
CONTL RANCH    N/A       73  52  48 SE6               PIMA CO DEQ
GRANT/1ST      N/A       71  47  42 E16               PIMA CO DEQ
CRAYCROFT/22ND N/A       69  51  53 N/A               PIMA CO DEQ
GOLFLINKS/KOLB N/A       68  51  54 NE5               PIMA CO DEQ
AJO/12TH       N/A       70  52  53 SE9               PIMA CO DEQ
FAIRGROUNDS    N/A       65 N/A N/A SE25              PIMA CO DEQ
SAGUARO        N/A       72  45  38 E17G39            *SABINO CYN
SAN CARLOS     N/A       74  45  36 SE10G18           *SAN CARLOS
GREEN VALLEY   N/A       67  50  54 E17               PIMA CO DEQ
HORSE CAMP CYN N/A       67  47  48 SE13G23           *ARAVAIPA CYN
RINCON MTNS    N/A       42  39  90 NE17G34           *NR MANNING CAMP
$$

AZZ509>511-262315-
LOCATION       SKY/WX    TMP DP  RH WIND       PRES   REMARKS
SAFFORD        CLOUDY    72  43  35 S14       30.19S
STRAY HORSE    N/A       58  36  44 E4G10             *
TRAIL CABIN    N/A       63  41  44 E7G12             *N OF GRANVILLE
BLACK HILLS    NOT AVBL
DRY LAKE       N/A       50  37  61 SE6G14            *NATANES MTNS
NOON CREEK     N/A       63  40  42 SW6G13            *PINALENO MTNS
COLUMBINE      N/A       45  34  66 NE4G12            *PINALENO MTNS
GUTHRIE        N/A       62  38  41 E5G16             *SW OF GUTHRIE
$$

AZZ502-503-513-262315-
LOCATION       SKY/WX    TMP DP  RH WIND       PRES   REMARKS
NOGALES        MOSUNNY   72  50  45 E21G28    30.10F
SELLS          N/A       77  52  42 E10G15            *
SASABE         N/A       73  50  44 NE10G16           *ALTAR VLY
HOPKINS        N/A       52  46  80 E17G35            *SANTA RITA MTNS
CARR CYN       N/A       56  49  76 S4G13             *W OF HEREFORD
$$

AZZ507-508-512-262315-
LOCATION       SKY/WX    TMP DP  RH WIND       PRES   REMARKS
SIERRA VISTA   CLOUDY    61  50  67 E16       30.21F
DOUGLAS        MOSUNNY   65  50  58 E21G35    30.21F
EMPIRE MTNS    NOT AVBL
MULESHOE RANCH N/A       61  44  54 E10G22            *PRESERVE
HEADQUARTERS   NOT AVBL
$$

.............................NOTES.............................
THIS IS AN AUTOMATED COLLECTIVE WITH MINIMAL QUALITY CONTROL.
PIMA CO DEQ SITES HAVE NONSTANDARD WIND SENSOR HEIGHTS.
PIMA CO DEQ SITES DO NOT REPORT WIND GUSTS.
* INDICATES WIND SENSORS LOCATED AT 20 FEET INSTEAD OF 33 FEET.
..............................KEY..............................
SKY/WX - SKY CONDITION/WEATHER
TMP    - TEMPERATURE IN FAHRENHEIT
DP     - DEWPOINT IN FAHRENHEIT
RH     - RELATIVE HUMIDITY IN PERCENT
WIND   - DIRECTION AND SPEED IN MILES PER HOUR (MPH)
VRB    - VARIABLE WIND DIRECTION
PRES   - MEAN SEA LEVEL PRESSURE IN INCHES OF MERCURY
         F - FALLING PRESSURE   R - RISING PRESSURE
         S - STEADY PRESSURE
VSB    - VISIBILITY IN MILES
HX     - HEAT INDEX IN FAHRENHEIT
WCI    - WIND CHILL INDEX IN FAHRENHEIT
N/A    - NOT AVAILABLE
AFB    - AIR FORCE BASE
         DAVIS-MONTHAN IS DAVIS-MONTHAN AIR FORCE BASE
CYN    - CANYON
MTNS   - MOUNTAINS
NCA    - NATIONAL CONSERVATION AREA
NR     - NEAR
VLY    - VALLEY
CONTL  - CONTINENTAL
PIMA CO DEQ - PIMA COUNTY DEPT OF ENVIRONMENTAL QUALITY



USA.gov is the U.S. government's official web portal to all federal, state and local government web resources and services.